Weather History for Greenville, MS

Change the Weather History Date:

Friday, March 23, 2012

  Actual Average Record
Temperature  
Mean Temperature 62 °F 57 °F  
Max Temperature 72 °F 67 °F 87 °F (1929)
Min Temperature 52 °F 46 °F 30 °F (1943)
Degree Days  
Heating Degree Days 3 9  
Month to date heating degree days 89 270  
Since 1 July heating degree days 2046 2579  
Cooling Degree Days 0 1  
Month to date cooling degree days 52 9  
Year to date cooling degree days 56 14  
Growing Degree Days 12 (Base 50)    
Moisture  
Dew Point 51 °F    
Average Humidity 72    
Maximum Humidity 100    
Minimum Humidity 44    
Precipitation  
Precipitation 0.00 in 0.16 in 2.13 in (2013)
Month to date precipitation 4.91 3.11  
Year to date precipitation 9.53 13.10  
Sea Level Pressure  
Sea Level Pressure 29.97 in    
Wind  
Wind Speed 8 mph (WSW)    
Max Wind Speed 18 mph    
Max Gust Speed 23 mph    
Visibility 10 miles    
Events      
T = Trace of Precipitation, MM = Missing Value Source: NWS Daily Summary

Daily Weather History Graph

Daily Weather History Graph

Search for Another Location

Airport:

Trip Planner

Search our weather history database for the weather conditions in past years. The results will help you decide how hot, cold, wet, or windy it might be!

Date:

Astronomy

Mar. 23, 2012 Rise Set
Actual Time 7:02 AM CDT 7:18 PM CDT
Civil Twilight 6:38 AM CDT 7:43 PM CDT
Nautical Twilight 6:09 AM CDT 8:12 PM CDT
Astronomical Twilight 5:39 AM CDT 8:41 PM CDT
Moon 7:16 AM CDT (3/23) 8:33 PM CDT (3/23)
Length of Visible Light 13h 04m
Length of Day
12h 15m
New Moon, 1% of the Moon is Illuminated
Mar 23
New Moon
Mar 30
First Quarter
Apr 6
Full
Apr 13
Last Quarter
Apr 21
New

Hourly Weather History & Observations

Time (CDT) Temp. Dew Point Humidity Pressure Visibility Wind Dir Wind Speed Gust Speed Precip Events Conditions
12:53 AM 57.9 °F 55.9 °F 93% 29.97 in 10.0 mi South 8.1 mph - N/A   Clear
1:53 AM 57.9 °F 55.9 °F 93% 29.96 in 10.0 mi SSE 9.2 mph - N/A   Clear
2:53 AM 57.0 °F 55.9 °F 96% 29.96 in 10.0 mi South 9.2 mph - N/A   Clear
3:50 AM 55.4 °F 55.4 °F 100% 29.96 in 10.0 mi West 8.1 mph - N/A   Partly Cloudy
3:53 AM 55.9 °F 55.0 °F 97% 29.98 in 10.0 mi WNW 6.9 mph - N/A   Partly Cloudy
4:53 AM 54.0 °F 53.1 °F 97% 29.97 in 9.0 mi SE 8.1 mph - N/A   Clear
5:53 AM 55.0 °F 54.0 °F 96% 29.96 in 9.0 mi SSE 6.9 mph - N/A   Clear
6:53 AM 52.0 °F 52.0 °F 100% 29.98 in 8.0 mi SSW 8.1 mph - N/A   Clear
7:53 AM 55.0 °F 55.0 °F 100% 29.98 in 9.0 mi SSW 4.6 mph - N/A   Clear
8:53 AM 60.8 °F 55.4 °F 82% 29.98 in 10.0 mi SW 6.9 mph - N/A   Clear
9:53 AM 62.1 °F 51.1 °F 67% 30.02 in 10.0 mi West 13.8 mph - N/A   Clear
10:53 AM 63.0 °F 51.1 °F 65% 30.02 in 10.0 mi West 9.2 mph - N/A   Clear
11:53 AM 64.9 °F 51.1 °F 61% 30.02 in 10.0 mi WNW 6.9 mph - N/A   Clear
12:53 PM 66.9 °F 50.0 °F 54% 30.01 in 10.0 mi West 10.4 mph - N/A   Clear
1:53 PM 69.1 °F 50.0 °F 51% 29.98 in 10.0 mi WSW 8.1 mph - N/A   Clear
2:53 PM 70.0 °F 48.9 °F 47% 29.96 in 10.0 mi WSW 11.5 mph - N/A   Clear
3:53 PM 71.1 °F 48.0 °F 44% 29.95 in 10.0 mi SW 15.0 mph - N/A   Clear
4:53 PM 72.0 °F 48.9 °F 44% 29.94 in 10.0 mi WSW 10.4 mph - N/A   Clear
5:53 PM 70.0 °F 46.0 °F 42% 29.94 in 10.0 mi WSW 12.7 mph - N/A   Clear
6:53 PM 66.9 °F 46.0 °F 47% 29.94 in 10.0 mi West 10.4 mph - N/A   Clear
7:53 PM 63.0 °F 46.0 °F 54% 29.95 in 10.0 mi West 5.8 mph - N/A   Clear
8:53 PM 64.0 °F 46.9 °F 54% 29.96 in 10.0 mi WNW 5.8 mph - N/A   Clear
9:53 PM 57.9 °F 48.9 °F 72% 29.97 in 10.0 mi SW 3.5 mph - N/A   Clear
10:53 PM 55.9 °F 46.0 °F 69% 29.98 in 10.0 mi Calm Calm - N/A   Clear
11:53 PM 57.0 °F 48.9 °F 74% 29.98 in 10.0 mi WSW 4.6 mph - N/A   Clear